This is the latest recevied weather packets stored in our database for station/object K6GMW. If no packets are shown the sender has not sent any weather packets the latest 1 day(s).
| Time | Temp. | Humidity | Pressure | Rain* | Wind** | Luminosity | Snow |
|---|---|---|---|---|---|---|---|
| 1778013597 | 27.78° C | 69% | 1006.6 hPa | 0 mm | 3.13 m/s, 179° | 693 W/m² | - |
| 1778013293 | 27.78° C | 68% | 1006.8 hPa | 0 mm | 3.13 m/s, 193° | 638 W/m² | - |
| 1778012990 | 27.78° C | 68% | 1006.9 hPa | 0 mm | 3.13 m/s, 198° | 1005 W/m² | - |
| 1778012687 | 27.78° C | 68% | 1006.7 hPa | 0 mm | 1.34 m/s, 168° | 637 W/m² | - |
| 1778012382 | 27.78° C | 68% | 1006.7 hPa | 0 mm | 5.81 m/s, 170° | 449 W/m² | - |
| 1778012080 | 27.78° C | 68% | 1006.9 hPa | 0 mm | 2.24 m/s, 223° | 715 W/m² | - |
| 1778011778 | 27.78° C | 69% | 1006.8 hPa | 0 mm | 3.58 m/s, 175° | 494 W/m² | - |
| 1778011475 | 27.78° C | 68% | 1006.9 hPa | 0 mm | 4.92 m/s, 176° | 620 W/m² | - |
| 1778011170 | 28.33° C | 67% | 1007 hPa | 0 mm | 2.68 m/s, 193° | 466 W/m² | - |
| 1778010868 | 27.78° C | 69% | 1007.2 hPa | 0 mm | 4.02 m/s, 180° | 445 W/m² | - |
| 1778010565 | 27.78° C | 68% | 1007.1 hPa | 0 mm | 5.36 m/s, 212° | 342 W/m² | - |
| 1778010263 | 27.78° C | 69% | 1007.1 hPa | 0 mm | 3.58 m/s, 170° | 679 W/m² | - |
| 1778009962 | 27.78° C | 69% | 1007.1 hPa | 0 mm | 3.13 m/s, 184° | 472 W/m² | - |
| 1778009660 | 27.78° C | 69% | 1007.1 hPa | 0 mm | 2.24 m/s, 175° | 426 W/m² | - |
| 1778009358 | 27.78° C | 67% | 1007.1 hPa | 0 mm | 4.02 m/s, 184° | 713 W/m² | - |
| 1778009056 | 27.78° C | 69% | 1007.2 hPa | 0 mm | 3.58 m/s, 208° | 647 W/m² | - |
| 1778008753 | 27.78° C | 69% | 1007.1 hPa | 0 mm | 2.68 m/s, 219° | 419 W/m² | - |
| 1778008452 | 27.78° C | 69% | 1007.1 hPa | 0 mm | 4.02 m/s, 202° | 801 W/m² | - |
| 1778008148 | 27.78° C | 69% | 1007.1 hPa | 0 mm | 4.02 m/s, 165° | 328 W/m² | - |
| 1778007843 | 27.22° C | 70% | 1007.3 hPa | 0 mm | 2.68 m/s, 205° | 480 W/m² | - |
| 1778007539 | 27.78° C | 68% | 1007.2 hPa | 0 mm | 4.02 m/s, 184° | 368 W/m² | - |
| 1778007236 | 27.78° C | 68% | 1007.4 hPa | 0 mm | 1.34 m/s, 179° | 383 W/m² | - |
| 1778006932 | 27.78° C | 69% | 1007.2 hPa | 0 mm | 3.13 m/s, 184° | 401 W/m² | - |
| 1778006629 | 27.78° C | 67% | 1007.3 hPa | 0 mm | 4.02 m/s, 192° | 1190 W/m² | - |
| 1778006326 | 27.78° C | 67% | 1007.4 hPa | 0 mm | 4.92 m/s, 176° | 880 W/m² | - |
* Rain latest hour (hover to see other rain measurements)
** Current wind speed in m/s (hover to see current wind gust speed)